Location: Unspecified
(44.0704°N, 88.6889°W)
Time: 05:05:46
(UTC+02:00)

Resurs 1-4 Rocket - Visible Passes

Search period start: 24 September 2017 00:00
Search period end: 04 October 2017 00:00
Orbit: 800 x 814 km, 98.5° (Epoch: 23 September)

Date Brightness Start Highest point End Pass type
(mag) Time Alt. Az. Time Alt. Az. Time Alt. Az.
24 Sep 3.4 10:27:23 10° N 10:30:23 35° N 10:30:23 35° N visible
24 Sep 4.1 12:09:43 10° NW 12:11:27 12° NW 12:11:27 12° NW visible
25 Sep 3.8 10:02:49 10° NNE 10:05:24 29° NNE 10:05:24 29° NNE visible
25 Sep 3.8 11:43:50 10° NNW 11:46:29 18° NW 11:46:29 18° NW visible
26 Sep 4.3 09:38:28 10° NNE 09:40:26 21° NE 09:40:26 21° NE visible
26 Sep 3.5 11:18:38 10° N 11:21:30 24° NW 11:21:30 24° NW visible
27 Sep 4.8 09:14:24 10° NE 09:15:26 14° NE 09:15:26 14° NE visible
27 Sep 3.5 10:53:42 10° N 10:56:31 29° NNW 10:56:31 29° NNW visible
28 Sep 3.6 10:28:57 10° N 10:31:33 30° N 10:31:33 30° N visible
28 Sep 4.2 12:11:27 10° NW 12:12:37 11° NW 12:12:37 11° NW visible
29 Sep 4.0 10:04:23 10° NNE 10:06:34 25° NNE 10:06:34 25° NNE visible
29 Sep 3.9 11:45:27 10° NNW 11:47:39 17° NW 11:47:39 17° NW visible
30 Sep 4.5 09:40:01 10° NNE 09:41:35 19° NE 09:41:35 19° NE visible
30 Sep 3.7 11:20:13 10° N 11:22:39 22° NNW 11:22:39 22° NNW visible
01 Oct 4.9 09:15:55 10° NE 09:16:37 13° NE 09:16:37 13° NE visible
01 Oct 3.7 10:55:17 10° N 10:57:41 25° NNW 10:57:41 25° NNW visible
02 Oct 3.9 10:30:32 10° N 10:32:42 25° N 10:32:42 25° N visible
02 Oct 4.2 12:13:12 10° NW 12:13:47 11° NW 12:13:47 11° NW visible
03 Oct 4.2 10:05:57 10° NNE 10:07:44 22° NNE 10:07:44 22° NNE visible
03 Oct 4.0 11:47:06 10° NNW 11:48:48 15° NW 11:48:48 15° NW visible
